Regional Weather Roundup
Issued by NWS

Home | Current Version | Previous Version | Graphics & Text | Print | Product List | Glossary On
Versions: 1 2 3 4 5 6 7 8 9 10 11 12 13 14 15 16 17 18 19 20 21 22 23 24 25 26 27 28 29 30 31 32 33 34 35 36 37 38 39 40 41 42 43 44 45 46 47 48 49 50
000
ASUS43 KLOT 271106
RWRIL

ILLINOIS REGIONAL WEATHER ROUNDUP
NATIONAL WEATHER SERVICE CHICAGO/ROMEOVILLE IL
500 AM CST SAT DEC 27 2014

NOTE: "FAIR" INDICATES FEW OR NO CLOUDS BELOW 12,000 FEET WITH NO
SIGNIFICANT WEATHER AND/OR OBSTRUCTIONS TO VISIBILITY.

* THESE STATIONS ARE NOT UNDER NWS QUALITY CONTROL. THEY ALSO MAY NOT
  REPORT WEATHER SUCH AS PRECIPITATION OR FOG.

ILZ001-002-007-009-015-016-024-271200-
NORTHWEST ILLINOIS

CITY           SKY/WX    TMP DP  RH WIND       PRES   REMARKS
MOLINE         CLOUDY    49  47  93 S12       29.89F FOG
STERLING*      CLOUDY    48  45  87 SW3       29.93R
SAVANNA*       CLOUDY    48  45  90 S10       29.88F
$$

ILZ003-004-008-010-011-017-018-271200-
NORTH CENTRAL ILLINOIS

CITY           SKY/WX    TMP DP  RH WIND       PRES   REMARKS
ROCKFORD       CLOUDY    46  42  86 S13       29.93F
FREEPORT*      LGT RAIN  46  44  95 S14G21    29.91F
ROCHELLE*      CLOUDY    45  44  95 S12       29.93F
DE KALB*       CLOUDY    43  42  97 S12       29.94F FOG
PERU*          CLOUDY    48  46  91 S14       29.96S
$$

ILZ005-006-012>014-019>023-271200-
NORTHEAST ILLINOIS

CITY           SKY/WX    TMP DP  RH WIND       PRES   REMARKS
CHICAGO-OHARE  CLOUDY    47  43  86 SW15      29.95F
CHICAGO-MIDWAY CLOUDY    48  45  89 S13       29.96F
AURORA         CLOUDY    47  43  86 S12       29.94F
LANSING*       CLOUDY    45  44  96 S14G21    29.99F
JOLIET*        CLOUDY    46  43  91 SW10G18   29.97S
WAUKEGAN       CLOUDY    46  42  86 S13       29.93F
DUPAGE AIRPORT CLOUDY    46  43  89 S10       29.94S
KANKAKEE*      CLOUDY    46  44  95 S15       30.00F
WHEELING       CLOUDY    47  43  86 S12       29.96F
MORRIS*        CLOUDY    46  46  97 SW12      29.96S
ROMEOVILLE*    CLOUDY    46  45  96 SW12      29.97R
NORTHERLY ISL    N/A     46  43  89 SW21        N/A
$$

LMZ740>746-271200-
SOUTHERN LAKE MICHIGAN

STATION/POSITION SKY/WX   TEMP    WIND        PRES    VSBY  WAVE
                          AIR SEA DIR/SP/G                  HT/PER
                          (F)     (DEG/KT/KT) (MB)    (MI)  (FT/S)
WAUKEGAN HARBOR            43     170/ 15/ 16   N/A
HARRISON CRIB              45     190/ 19/ 21   N/A
BURNHAM HARBOR             46     190/ 15/ 18   N/A
CALUMET HARBOR             46     180/  9/ 13 1013.7F
MICHIGAN CITY              46     170/ 15/ 19   N/A
$$

ILZ025>027-034>036-040-047-049-050-058-095>099-271200-
WEST-CENTRAL ILLINOIS

CITY           SKY/WX    TMP DP  RH WIND       PRES   REMARKS
QUINCY         CLOUDY    48  46  93 SW17      29.97S
GALESBURG*     LGT RAIN  48  46  93 S10G17    29.95R
MACOMB*        CLOUDY    48  47  95 S14       29.99R
JACKSONVILLE*  CLOUDY    50  47  90 S8        30.02S
PITTSFIELD*    CLOUDY    49  47  91 S8        30.01F
$$

ILZ028>032-037-038-041>044-048-051>054-059>061-271200-
CENTRAL ILLINOIS

CITY           SKY/WX    TMP DP  RH WIND       PRES   REMARKS
PONTIAC        CLOUDY    47  46  95 S15       29.99S
BLOOMINGTON    CLOUDY    45  45 100 SW15      30.01R FOG
DECATUR        CLOUDY    47  45  93 S17       30.04S
PEORIA         CLOUDY    49  44  83 S14       30.00R
LACON*         CLOUDY    47  44  88 SW13G18   29.97R
LINCOLN*       CLOUDY    47  46  93 S7        30.01S
SPRINGFIELD    CLOUDY    48  45  89 SW10      30.04R
TAYLORVILLE    CLOUDY    45  45 100 S13       30.04S
$$

ILZ033-039-045-046-055>057-062-063-271200-
EAST-CENTRAL ILLINOIS

CITY           SKY/WX    TMP DP  RH WIND       PRES   REMARKS
CHAMPAIGN      CLOUDY    46  44  93 S16       30.04S
DANVILLE*      LGT RAIN  44  43  97 S12G17    30.03S
RANTOUL*       CLOUDY    47  46  95 S13       30.03R
MATTOON        CLOUDY    45  44  97 S10       30.06S
PARIS*         CLOUDY    45  44  97 S13G21    30.08S
$$

ILZ079-100>102-271200-
SOUTHWEST ILLINOIS

CITY           SKY/WX    TMP DP  RH WIND       PRES   REMARKS
ALTON          CLOUDY    47  46  95 S8        30.06R
CAHOKIA*       CLOUDY    48  46  93 S5        30.07R
SPARTA*        CLOUDY    45  44  95 S10G16    30.09S
$$

ILZ064>066-069>071-074>076-080>082-084>086-088>090-092>094-271200-
SOUTH-CENTRAL ILLINOIS

CITY           SKY/WX    TMP DP  RH WIND       PRES   REMARKS
CARBONDALE     CLOUDY    47  44  90 S12       30.10F
CAIRO*         CLOUDY    48  48 100 SE5       30.14S FOG
EFFINGHAM*     CLOUDY    46  43  89 S7        30.09S
MARION         CLOUDY    46  45  93 S12       30.12S
MT. VERNON     CLOUDY    46  41  81 S9        30.10S
CENTRALIA*     CLOUDY    46  43  90 S9        30.08S
SALEM*         CLOUDY    48  46  90 S9        30.08F
METROPOLIS*    DRIZZLE   46  46 100 S3        30.14S
$$

ILZ067-068-072-073-078-083-087-091-271200-
SOUTHEAST ILLINOIS

CITY           SKY/WX    TMP DP  RH WIND       PRES   REMARKS
LAWRENCEVILLE  LGT RAIN  44  43  96 S9        30.13S FOG
FLORA*         MOCLDY    45  45  99 S10       30.10S
FAIRFIELD*     DRIZZLE   45  45  99 S6        30.10S
HARRISBURG*    CLOUDY    46  46 100 S5        30.14F
ROBINSON*      CLOUDY    44  43  95 S12       30.13S
CARMI*         LGT RAIN  46  46 100 S6        30.13S
$$

ABBREVIATIONS USED IN REMARKS
   TC - TEMPERATURE IN CELSIUS
  WCI - WIND CHILL INDEX
   HX - HEAT INDEX
  VSB - VISIBILITY
$$




USA.gov is the U.S. government's official web portal to all federal, state and local government web resources and services.